Flag for Germany Weather past 2 weeks in Fürth, Bavaria, Germany

52 °F

Passing clouds.

Feels Like: 50 °F
Forecast: 40 / 55 °F
Wind: 6 mph from East

Location: Nuernberg

Current Time: Oct 10, 2015 at 8:12:29 AM

Latest Report: Oct 10, 2015 at 7:50 AM

Visibility: N/A

Pressure: 30.07 "Hg

Humidity: 88%

Dew point: 48 °F

Location of FürthLocation

Historic Weather in Fürth — Graph


Fürth temperature yesterday

Maximum temperature yesterday: 63 °F (at 3:20 PM)
Minimum temperature yesterday: 48 °F (at 4:50 AM)
Average temperature yesterday: 54 °F

Past Weeks' High & Low Weather Summary

High70 °F (Oct 2, 2:50 PM)100% (Sep 26, 7:50 AM)30.57 "Hg (Sep 26, 7:50 AM)
Low34 °F (Oct 2, 7:50 AM)30% (Oct 2, 2:20 PM)29.71 "Hg (Oct 6, 2:50 PM)
Average54 °F74%30.19 "Hg
* Reported Sep 25 6:20 AM — Oct 10 6:50 AM, Fürth, Weather by CustomWeather, © 2015

Note: Actual official high and low records may vary slightly from our data, if they occured in-between our weather recording intervals... More about our weather records


Fürth weather history for previous 24 hours

Time TempWeatherWind HumidityBarometerVisibility
6:50 AM
Sat, Oct 10
50 °FPassing clouds.2 mph100%30.07 "HgN/A
6:20 AM50 °FPassing clouds.1 mph94%30.07 "HgN/A
5:50 AM50 °FPassing clouds.1 mph94%30.07 "HgN/A
5:20 AM48 °FPassing clouds.No wind94%30.07 "HgN/A
4:50 AM46 °FPassing clouds.1 mph100%30.07 "HgN/A
4:20 AM48 °FClear.1 mph94%30.07 "Hg10 mi
3:50 AM48 °FClear.1 mph100%30.07 "Hg10 mi
3:20 AM48 °FFog.1 mph94%30.09 "HgN/A
2:50 AM48 °FFog.1 mph94%30.09 "HgN/A
2:20 AM48 °FClear.No wind94%30.09 "Hg10 mi
1:50 AM48 °FClear.No wind94%30.09 "Hg10 mi
1:20 AM48 °FPassing clouds.1 mph94%30.09 "HgN/A
12:50 AM50 °FPassing clouds.1 mph94%30.09 "HgN/A
12:20 AM50 °FFog.1 mph94%30.09 "HgN/A
11:20 PM
Fri, Oct 9
52 °FPassing clouds.No wind94%30.09 "HgN/A
10:50 PM50 °FPassing clouds.1 mph94%30.09 "HgN/A
10:20 PM54 °FFog.1 mph88%30.09 "HgN/A
9:50 PM54 °FPassing clouds.2 mph88%30.09 "HgN/A
9:20 PM55 °FPassing clouds.1 mph82%30.09 "HgN/A
8:50 PM55 °FPassing clouds.1 mph82%30.09 "HgN/A
8:20 PM55 °FPartly cloudy.1 mph82%30.09 "HgN/A
7:50 PM57 °FPassing clouds.2 mph77%30.09 "HgN/A
7:20 PM57 °FBroken clouds.3 mph77%30.09 "HgN/A
6:50 PM59 °FBroken clouds.1 mph77%30.09 "HgN/A
6:20 PM61 °FPartly sunny.3 mph68%30.09 "HgN/A
5:50 PM61 °FPartly sunny.2 mph68%30.09 "HgN/A
5:20 PM61 °FScattered clouds.2 mph68%30.09 "HgN/A
4:20 PM63 °FScattered clouds.3 mph56%30.09 "HgN/A
3:50 PM63 °FScattered clouds.5 mph59%30.09 "HgN/A
3:20 PM63 °FScattered clouds.5 mph59%30.09 "HgN/A
2:50 PM61 °FScattered clouds.6 mph63%30.09 "HgN/A
2:20 PM61 °FScattered clouds.3 mph63%30.09 "HgN/A
1:50 PM61 °FScattered clouds.5 mph63%30.09 "HgN/A
1:20 PM61 °FBroken clouds.5 mph68%30.12 "HgN/A
12:50 PM59 °FPartly sunny.5 mph72%30.12 "HgN/A
12:20 PM57 °FPartly sunny.5 mph77%30.12 "HgN/A
11:50 AM57 °FPartly sunny.5 mph82%30.12 "HgN/A
11:20 AM55 °FPartly sunny.3 mph82%30.12 "HgN/A
10:50 AM54 °FPartly sunny.3 mph88%30.12 "HgN/A
10:20 AM54 °FPartly sunny.2 mph88%30.12 "HgN/A
9:50 AM52 °FSunny.1 mph94%30.12 "Hg10 mi
9:20 AM52 °FSunny.2 mph94%30.12 "Hg10 mi
8:50 AM50 °FSunny.3 mph94%30.12 "Hg10 mi
8:20 AM50 °FClear.2 mph94%30.12 "Hg10 mi
Weather by CustomWeather, © 2015

See weather overviewHow to use our weather pages